Location: Newark
(41.0400°S, 62.7845°W)
Time: 23:15:41
(UTC+00:00)

Vanguard 2 - Pass Details

Date: 11 December 2021
Orbit: 554 x 2935 km, 32.9° (Epoch: 27 January)

Event Time Altitude Azimuth Distance (km) Brightness Sun altitude
Rises 06:45:15 0° 265° (W) 6,792 12.0 -15.9°
Reaches altitude 10° 06:49:59 10° 269° (W) 5,770 11.6 -15.3°
Maximum altitude 07:06:32 52° 337° (NNW) 2,977 10.1 -13.3°
Drops below altitude 10° 07:18:29 10° 48° (NE) 4,270 11.4 -11.7°
Sets 07:21:26 0° 53° (NE) 4,976 11.8 -11.3°
